This demonstration page uses our WeatherBlox Daily Observations layout. Learn more.

Left ArrowRight Arrow

Hourly Observations for July 24, 2016

Temp ( °F °C ) Dew Point ( °F °C ) Humidity (%) Winds ( mph kmh ) Pressure ( in mb ) Visibility ( mi km ) Precip ( " mm )
12:53 am 00:53 Clear 76 24.4 72 22.2 88 88 Calm 30.01 1016 10 16 0.00 0.00
1:53 am 01:53 Clear 76 24.4 72 22.2 88 88 NNE 3 6 30.01 1016 10 16 0.00 0.00
2:53 am 02:53 Partly Cloudy 75 23.9 71 21.7 88 88 Calm 30.00 1016 10 16 0.00 0.00
3:53 am 03:53 Clear 75 23.9 72 22.2 90 90 Calm 29.98 1015 10 16 0.00 0.00
4:53 am 04:53 Clear 73 22.8 71 21.7 94 94 Calm 29.99 1016 8 13 0.00 0.00
5:53 am 05:53 Clear 73 22.8 71 21.7 94 94 Calm 30.00 1016 9 14 0.00 0.00
6:53 am 06:53 Sunny with Mist and Fog 73 22.8 70 21.1 90 90 Calm 30.01 1016 6 10 0.00 0.00
7:53 am 07:53 Sunny 75 23.9 71 21.7 88 88 Calm 30.02 1017 9 14 0.00 0.00
8:53 am 08:53 Sunny 81 27.2 73 22.8 77 77 Calm 30.04 1017 10 16 0.00 0.00
9:53 am 09:53 Sunny 84 28.9 71 21.7 65 65 VRB 3 6 30.04 1017 10 16 0.00 0.00
10:53 am 10:53 Sunny 87 30.6 71 21.7 59 59 WSW 6 9 30.04 1017 10 16 0.00 0.00
11:53 am 11:53 Mostly Sunny 90 32.2 69 20.6 50 50 SSW 6 9 30.04 1017 10 16 0.00 0.00
12:53 pm 12:53 Sunny 91 32.8 68 20 47 47 Calm 30.02 1017 10 16 0.00 0.00
1:53 pm 13:53 Mostly Sunny 94 34.4 67 19.4 41 41 undefined N/A 30.01 1016 10 16 0.00 0.00
2:53 pm 14:53 Partly Cloudy 94 34.4 66 18.9 40 40 VRB 3 6 29.99 1016 10 16 0.00 0.00
3:53 pm 15:53 Sunny 95 35 65 18.3 37 37 VRB 6 9 29.97 1015 10 16 0.00 0.00
4:53 pm 16:53 Mostly Sunny 95 35 67 19.4 40 40 VRB 6 9 29.96 1014 10 16 0.00 0.00
5:53 pm 17:53 Mostly Sunny 95 35 66 18.9 39 39 VRB 6 9 29.96 1015 10 16 0.00 0.00
6:20 pm 18:20 Partly Cloudy with Nearby Thunderstorms 93 34 64 18 39 39 VRB 3 6 29.94 1014 10 16 0.00 0.00
6:53 pm 18:53 Mostly Cloudy with Nearby Thunderstorms 84 28.9 71 21.7 65 65 NNW 10 17 29.98 1015 10 16 0.00 0.00
7:03 pm 19:03 Mostly Cloudy 82 28 70 21 66 66 N 7 11 29.97 1015 10 16 0.00 0.00
7:53 pm 19:53 Sunny 83 28.3 68 20 61 61 Calm 29.99 1016 10 16 0.00 0.00
8:53 pm 20:53 Clear 81 27.2 68 20 65 65 Calm 29.99 1016 10 16 0.00 0.00
9:53 pm 21:53 Clear 82 27.8 69 20.6 65 65 SSE 3 6 30.02 1017 10 16 0.00 0.03
10:53 pm 22:53 Clear 78 25.6 70 21.1 76 76 Calm 30.03 1017 10 16 0.00 0.00
11:53 pm 23:53 Clear 75 23.9 70 21.1 84 84 NE 3 6 30.02 1017 10 16 0.00 0.03

Powered by AerisWeather